Perry, IA

10:47 PM CST on November 19, 2017 (GMT -0600)
Perry Municipal

Weather History for KPRO - November, 2011

Change the Weather History Date:

Sunday, November 27, 2011

  Actual Average Record
Temperature  
Mean Temperature 30 °F -  
Max Temperature 37 °F 39 °F 69 °F (1990)
Min Temperature 23 °F 21 °F 0 °F (2014)
Degree Days  
Heating Degree Days 34    
Moisture  
Dew Point 26 °F    
Average Humidity 73    
Maximum Humidity 90    
Minimum Humidity 66    
Precipitation  
Precipitation 0.00 in - - ()
Sea Level Pressure  
Sea Level Pressure 30.19 in    
Wind  
Wind Speed 18 mph (NNW)    
Max Wind Speed 26 mph    
Max Gust Speed 34 mph    
Visibility 10 miles    
Events      
Averages and records for this station are not official NWS values.
T = Trace of Precipitation, MM = Missing Value Source: NWS Daily Summary

Daily Weather History Graph

Daily Weather History Graph

Search for Another Location

Airport or City:

Trip Planner

Search our weather history database for the weather conditions in past years. The results will help you decide how hot, cold, wet, or windy it might be!

Date:

Astronomy

Nov. 27, 2011 Rise Set
Actual Time 7:19 AM CST 4:48 PM CST
Civil Twilight 6:49 AM CST 5:18 PM CST
Nautical Twilight 6:14 AM CST 5:53 PM CST
Astronomical Twilight 5:41 AM CST 6:26 PM CST
Moon 9:45 AM CST (11/27) 7:27 PM CST (11/27)
Length of Visible Light 10h 29m
Length of Day
9h 28m
Waxing Crescent, 8% of the Moon is Illuminated
Nov 27
Waxing Crescent
Dec 2
First Quarter
Dec 10
Full
Dec 17
Last Quarter
Dec 24
New

Hourly Weather History & Observations

Time (CST) Temp. Windchill Dew Point Humidity Pressure Visibility Wind Dir Wind Speed Gust Speed Precip Events Conditions
12:15 AM 37.4 °F 26.4 °F 27.9 °F 68% 30.11 in 10.0 mi NNW 23.0 mph 34.5 mph N/A   Overcast
12:55 AM 37.2 °F 26.1 °F 27.5 °F 68% 30.10 in 10.0 mi NNW 23.0 mph 34.5 mph N/A   Overcast
1:15 AM 37.0 °F 25.6 °F 27.9 °F 69% 30.10 in 10.0 mi NNW 24.2 mph 27.6 mph N/A   Overcast
1:35 AM 37.0 °F 25.6 °F 28.0 °F 70% 30.11 in 10.0 mi NNW 24.2 mph 29.9 mph N/A   Overcast
1:55 AM 36.9 °F 25.1 °F 27.3 °F 68% 30.12 in 10.0 mi NNW 25.3 mph 33.4 mph N/A   Overcast
2:35 AM 36.5 °F 25.2 °F 26.2 °F 66% 30.13 in 10.0 mi NNW 23.0 mph 34.5 mph N/A   Overcast
2:55 AM 36.5 °F 25.7 °F 26.6 °F 67% 30.13 in 10.0 mi NNW 20.7 mph 28.8 mph N/A   Overcast
3:15 AM 36.5 °F 26.0 °F 27.1 °F 69% 30.13 in 10.0 mi NNW 19.6 mph 31.1 mph N/A   Overcast
3:35 AM 36.5 °F 26.7 °F 27.5 °F 70% 30.13 in 10.0 mi NNW 17.3 mph 26.5 mph N/A   Overcast
3:55 AM 36.3 °F 26.4 °F 27.9 °F 71% 30.13 in 10.0 mi NNW 17.3 mph 23.0 mph N/A   Overcast
4:15 AM 36.1 °F 24.7 °F 27.9 °F 72% 30.13 in 10.0 mi NNW 23.0 mph 31.1 mph N/A   Overcast
4:35 AM 36.1 °F 24.2 °F 27.3 °F 70% 30.13 in 10.0 mi NNW 25.3 mph 32.2 mph N/A   Overcast
4:55 AM 35.8 °F 25.1 °F 27.1 °F 71% 30.13 in 10.0 mi NNW 19.6 mph 34.5 mph N/A   Overcast
5:15 AM 35.6 °F 23.2 °F 27.0 °F 71% 30.14 in 10.0 mi NNW 26.5 mph 32.2 mph N/A   Overcast
5:35 AM 35.2 °F 24.4 °F 27.3 °F 73% 30.15 in 10.0 mi NNW 19.6 mph 27.6 mph N/A   Overcast
5:55 AM 35.1 °F 24.8 °F 27.0 °F 72% 30.16 in 10.0 mi NNW 17.3 mph 25.3 mph N/A   Overcast
6:15 AM 34.9 °F 23.9 °F 27.1 °F 73% 30.16 in 10.0 mi NNW 19.6 mph 27.6 mph N/A   Overcast
6:35 AM 34.5 °F 22.8 °F 26.6 °F 73% 30.17 in 10.0 mi NNW 21.9 mph 29.9 mph N/A   Overcast
7:15 AM 34.5 °F 22.8 °F 26.1 °F 71% 30.19 in 10.0 mi North 21.9 mph 28.8 mph N/A   Overcast
7:35 AM 34.2 °F 24.4 °F 26.2 °F 73% 30.19 in 10.0 mi North 15.0 mph - N/A   Overcast
7:55 AM 34.2 °F 24.0 °F 26.2 °F 73% 30.19 in 10.0 mi North 16.1 mph - N/A   Overcast
8:15 AM 34.2 °F 24.0 °F 26.6 °F 74% 30.20 in 10.0 mi NNW 16.1 mph 21.9 mph N/A   Overcast
8:35 AM 34.2 °F 22.6 °F 26.2 °F 73% 30.21 in 10.0 mi NNW 20.7 mph - N/A   Overcast
9:15 AM 34.3 °F 25.0 °F 25.9 °F 71% 30.21 in 10.0 mi NNW 13.8 mph 26.5 mph N/A   Overcast
9:35 AM 34.3 °F 25.0 °F 26.1 °F 72% 30.21 in 10.0 mi NNW 13.8 mph 26.5 mph N/A   Overcast
9:55 AM 34.2 °F 23.3 °F 25.7 °F 71% 30.21 in 10.0 mi North 18.4 mph 26.5 mph N/A   Overcast
10:15 AM 34.3 °F 23.9 °F 26.4 °F 73% 30.21 in 10.0 mi NNW 17.3 mph 26.5 mph N/A   Overcast
10:35 AM 34.7 °F 23.7 °F 26.4 °F 72% 30.22 in 10.0 mi NNW 19.6 mph 23.0 mph N/A   Overcast
10:55 AM 34.7 °F 23.7 °F 26.4 °F 72% 30.21 in 10.0 mi NNW 19.6 mph 25.3 mph N/A   Overcast
11:15 AM 34.7 °F 24.3 °F 26.4 °F 72% 30.21 in 10.0 mi NNW 17.3 mph 23.0 mph N/A   Overcast
12:15 PM 34.9 °F 24.2 °F 26.2 °F 71% 30.20 in 10.0 mi NNW 18.4 mph 24.2 mph N/A   Overcast
12:35 PM 35.1 °F 23.5 °F 25.9 °F 69% 30.20 in 10.0 mi NNW 21.9 mph - N/A   Overcast
12:55 PM 35.2 °F 24.1 °F 26.1 °F 69% 30.20 in 10.0 mi NNW 20.7 mph 24.2 mph N/A   Overcast
1:15 PM 35.1 °F 24.5 °F 26.2 °F 70% 30.20 in 10.0 mi NNW 18.4 mph 21.9 mph N/A   Overcast
1:35 PM 34.9 °F 26.2 °F 26.1 °F 70% 30.20 in 10.0 mi NNW 12.7 mph - N/A   Overcast
1:55 PM 34.9 °F 25.7 °F 25.9 °F 70% 30.19 in 10.0 mi North 13.8 mph - N/A   Overcast
2:15 PM 34.9 °F 24.6 °F 25.9 °F 70% 30.19 in 10.0 mi NNW 17.3 mph 23.0 mph N/A   Overcast
2:35 PM 34.7 °F 24.7 °F 26.1 °F 71% 30.19 in 10.0 mi NNW 16.1 mph - N/A   Overcast
2:55 PM 34.3 °F 23.9 °F 25.7 °F 71% 30.19 in 10.0 mi North 17.3 mph - N/A   Overcast
3:15 PM 34.7 °F 25.1 °F 25.7 °F 70% 30.20 in 10.0 mi NNW 15.0 mph - N/A   Overcast
3:35 PM 34.5 °F 25.3 °F 25.5 °F 70% 30.21 in 10.0 mi NNW 13.8 mph 21.9 mph N/A   Overcast
3:55 PM 34.2 °F 24.0 °F 25.5 °F 71% 30.20 in 10.0 mi North 16.1 mph - N/A   Overcast
4:15 PM 34.2 °F 24.4 °F 25.7 °F 71% 30.21 in 10.0 mi NNW 15.0 mph - N/A   Overcast
4:35 PM 34.0 °F 24.6 °F 25.5 °F 71% 30.21 in 10.0 mi NNW 13.8 mph 19.6 mph N/A   Overcast
4:55 PM 34.0 °F 27.2 °F 25.9 °F 72% 30.21 in 10.0 mi North 8.1 mph - N/A   Overcast
5:15 PM 33.8 °F 27.0 °F 26.1 °F 73% 30.20 in 10.0 mi North 8.1 mph - N/A   Overcast
5:35 PM 33.8 °F 25.8 °F 25.9 °F 73% 30.21 in 10.0 mi North 10.4 mph 16.1 mph N/A   Overcast
5:55 PM 33.8 °F 25.3 °F 25.7 °F 72% 30.21 in 10.0 mi NNW 11.5 mph - N/A   Overcast
6:15 PM 33.8 °F 25.8 °F 26.2 °F 74% 30.21 in 10.0 mi NNW 10.4 mph - N/A   Overcast
6:35 PM 33.6 °F 25.0 °F 25.7 °F 73% 30.22 in 10.0 mi North 11.5 mph - N/A   Overcast
6:55 PM 33.8 °F 26.4 °F 26.1 °F 73% 30.22 in 10.0 mi NNW 9.2 mph - N/A   Overcast
7:15 PM 33.6 °F 26.2 °F 26.1 °F 74% 30.22 in 10.0 mi North 9.2 mph - N/A   Overcast
7:35 PM 33.6 °F 26.2 °F 26.1 °F 74% 30.22 in 10.0 mi NNW 9.2 mph - N/A   Overcast
7:55 PM 33.3 °F 26.4 °F 25.7 °F 74% 30.22 in 10.0 mi North 8.1 mph - N/A   Overcast
8:15 PM 33.3 °F 27.1 °F 26.1 °F 75% 30.22 in 10.0 mi North 6.9 mph - N/A   Overcast
8:35 PM 33.1 °F 24.4 °F 25.7 °F 74% 30.22 in 10.0 mi NNE 11.5 mph - N/A   Overcast
8:55 PM 32.2 °F 25.8 °F 25.3 °F 76% 30.21 in 10.0 mi North 6.9 mph - N/A   Mostly Cloudy
9:15 PM 31.6 °F 26.0 °F 25.3 °F 78% 30.21 in 10.0 mi North 5.8 mph - N/A   Scattered Clouds
9:35 PM 31.5 °F 26.8 °F 25.2 °F 78% 30.21 in 10.0 mi NNE 4.6 mph - N/A   Clear
9:55 PM 30.9 °F 27.5 °F 24.8 °F 78% 30.21 in 10.0 mi NNE 3.5 mph - N/A   Clear
10:15 PM 29.7 °F 26.1 °F 24.4 °F 81% 30.20 in 10.0 mi North 3.5 mph - N/A   Clear
10:35 PM 29.7 °F - 24.6 °F 81% 30.20 in 10.0 mi Calm Calm - N/A   Clear
10:55 PM 29.1 °F - 24.8 °F 84% 30.20 in 10.0 mi Calm Calm - N/A   Clear
11:15 PM 24.8 °F - 21.2 °F 86% 30.21 in 10.0 mi Calm Calm - N/A   Clear
11:35 PM 23.2 °F - 20.7 °F 90% 30.19 in 10.0 mi Calm Calm - N/A   Clear
11:55 PM 21.6 °F - 19.2 °F 91% 30.19 in 10.0 mi Calm Calm - N/A   Clear